[[{"header":{"parameterUnit":"m.s-1","parameterCategory":1,"la1":30.2991,"la2":30.254,"lo1":-89.0895,"lo2":-89.0444,"dy":0.0017,"dx":0.0017,"nx":28,"ny":28,"refTime":"2023-10-09T21:00:00:Z","depth":0,"parameterNumber":2,"parameterNumberName":"U-component_of_WINDS"},"data":[0,0,0,0,0,0,0,0,0,0,0,0,0,0,0,0,0,0,0,0,0,0,0,0,0,0,0,0,0,0,0,0,0,0,0,0,0,0,0,0,0,0,0,0,0,0,0,0,0,0,0,0,0,0,0,0,0,0,2.1071,2.1072,0,2.1161,2.1162,2.1163,2.1152,2.115,2.1149,2.1147,2.1239,2.1243,2.1246,0,0,0,0,0,0,0,0,0,0,0,0,0,2.0885,2.0889,2.1071,2.1072,2.1073,2.1161,2.1162,2.1163,2.1152,2.115,2.1148,2.1147,2.1238,2.1242,2.1247,0,0,0,0,0,0,0,0,0,0,0,0,0,2.097,2.089,2.107,2.1078,2.1079,2.116,2.1162,2.1163,2.1152,2.115,2.1148,2.1146,2.1236,2.1242,2.1247,2.1327,0,0,2.1265,2.1267,0,0,0,0,0,0,0,0,2.0965,2.0976,2.1076,2.1077,2.1079,2.1143,2.113,2.1218,2.1153,2.1125,2.1147,2.1145,2.1209,2.1216,2.1238,2.1331,2.1335,2.1265,2.1269,2.1271,2.1273,0,0,0,0,0,0,0,2.0959,2.0972,2.1106,2.1077,2.1079,2.1075,2.1085,2.1147,2.1178,2.1127,2.1126,2.1137,2.1209,2.1233,2.124,2.1336,2.1265,2.127,2.1274,2.1276,2.1494,2.1496,0,0,0,0,0,0,2.0952,2.0968,2.1103,2.1109,2.1016,2.1081,2.1091,2.1125,2.1177,2.1183,2.1139,2.1136,2.1224,2.1234,2.1243,2.1336,2.1271,2.1276,2.128,2.1492,2.1494,2.1497,0,0,0,0,0,0,2.0948,2.0964,2.11,2.1038,2.1055,2.1086,2.1124,2.1127,2.1151,2.1186,2.1191,2.1157,2.1223,2.1235,2.1305,2.134,2.1279,2.1284,2.1489,2.1492,2.1496,2.1525,0,0,0,0,0,0,2.0942,2.0963,2.0994,2.1039,2.1059,2.1161,2.1126,2.1131,2.1161,2.1158,2.1205,2.121,2.1222,2.1297,2.1311,2.1346,2.1289,2.1486,2.149,2.1495,2.1521,2.1529,2.1536,0,0,0,0,0,2.0936,2.0999,2.0996,2.1012,2.1099,2.1163,2.1174,2.1186,2.1164,2.1195,2.1217,2.1209,2.1334,2.1304,2.132,2.1357,2.1484,2.1489,2.1494,2.1518,2.1528,2.1536,0,0,0,0,0,0,2.0958,2.1006,2.1002,2.1082,2.1118,2.1161,2.12,2.1197,2.124,2.1236,2.1249,2.1259,2.1329,2.1351,2.1316,2.1435,2.1406,2.1414,2.1418,2.1428,2.1435,2.1427,2.1293,0,0,0,0,0,2.0972,2.1021,2.106,2.1127,2.1145,2.117,2.1198,2.1204,2.1242,2.1258,2.1285,2.1322,2.1369,2.14,2.1446,2.1525,2.1533,2.1558,2.1566,2.1572,2.1578,2.1618,2.1629,2.1514,2.1514,2.1514,0,0,2.1002,2.1034,2.1064,2.1132,2.1161,2.121,2.1183,2.1237,2.1272,2.1266,2.1332,2.1354,2.1395,2.1469,2.1503,2.1489,2.1612,2.1578,2.1583,2.1586,2.1625,2.1635,2.1645,2.1518,2.1517,2.1517,0,0,2.1081,2.1111,2.1168,2.1197,2.1241,2.1257,2.127,2.1313,2.1326,2.1393,2.1388,2.1431,2.1513,2.1541,2.1567,2.1653,2.1646,2.1668,2.1706,2.1745,2.1754,2.1762,2.1789,2.1799,2.1675,2.1675,2.1675,0,2.1112,2.1186,2.1198,2.1252,2.128,2.1276,2.1332,2.136,2.1416,2.1435,2.142,2.152,2.1548,2.1626,2.1647,2.1669,2.1683,2.1662,2.1752,2.176,2.1767,2.1793,2.1804,2.1677,2.1677,2.1677,2.1676,0,2.1221,2.1272,2.1313,2.1366,2.14,2.1455,2.1473,2.1505,2.1508,2.1524,2.159,2.1624,2.1674,2.1694,2.1698,2.1772,2.1762,2.1749,2.1719,2.178,2.1805,2.1815,2.168,2.1679,2.1679,2.1678,0,0,2.1317,2.1374,2.1388,2.1411,2.1458,2.1497,2.155,2.1599,2.1625,2.1664,2.1707,2.1775,2.1762,2.1791,2.1798,2.1832,2.1893,2.1814,2.1815,2.1825,2.1973,2.1981,2.1993,2.189,2.1892,2.1894,2.1969,0,2.1397,2.1492,2.1503,2.1586,2.1632,2.1627,2.1673,2.1706,2.1722,2.1762,2.178,2.1827,2.1808,2.1825,2.1859,2.1879,2.1923,2.1874,2.1928,2.193,2.1915,2.2006,2.2015,2.2085,2.1979,2.1981,2.1982,0,2.1505,2.1544,2.1632,2.1669,2.1689,2.173,2.1774,2.1813,2.1849,2.1858,2.1889,2.189,2.1943,2.1913,2.1984,2.1951,2.1973,2.1986,2.1989,2.1993,2.1958,2.2009,2.2107,2.2117,2.1998,2.1997,2.1995,0,2.1561,2.1637,2.1698,2.1718,2.1764,2.1792,2.1813,2.1847,2.1874,2.1913,2.193,2.1974,2.1998,2.2032,2.2044,2.2021,2.2114,2.2085,2.2121,2.212,2.2139,2.2137,2.2239,2.2158,2.2158,2.2158,2.2158,0,2.1649,2.1702,2.1724,2.1762,2.182,2.1831,2.1888,2.1907,2.1937,2.1976,2.1976,2.2013,2.2029,2.2068,2.2078,2.2134,2.2145,2.2153,2.2154,2.2151,2.215,2.2165,2.2159,2.2161,2.216,2.216,2.2159,0,2.1722,2.1739,2.1805,2.1842,2.1852,2.1893,2.1924,2.1959,2.1975,2.2025,2.2037,2.2061,2.2106,2.2122,2.2179,2.2185,2.2249,2.2248,2.2236,2.2236,2.227,2.2265,2.2383,2.2397,2.2309,2.231,2.2311,0,2.1775,2.1815,2.1856,2.1882,2.1903,2.1946,2.1973,2.1986,2.2014,2.2056,2.2086,2.2131,2.2167,2.224,2.2262,2.2304,2.2302,2.234,2.2308,2.2303,2.2299,2.2295,2.2298,2.2345,2.2346,2.2347,2.2348,0,2.1867,2.1873,2.1913,2.1955,2.1987,2.2021,2.2054,2.2075,2.2092,2.2123,2.2169,2.2198,2.2253,2.2297,2.234,2.2359,2.2355,2.2358,2.2368,2.2364,2.2354,2.2356,2.225,2.2355,2.2354,2.2353,2.2353,2.2353,2.193,2.1964,2.1997,2.204,2.2066,2.2095,2.2129,2.2148,2.2186,2.2232,2.2237,2.2286,2.2318,2.2374,2.2396,2.2433,2.2422,2.2438,2.2441,2.2444,2.2445,2.235,2.2441,2.2441,2.2441,2.2441,2.2441,0,2.2019,2.2039,2.2079,2.2124,2.2157,2.2151,2.2186,2.2214,2.2256,2.2287,2.2322,2.2373,2.2415,2.2439,2.2481,2.2506,2.2505,2.2516,2.2513,2.2517,2.2453,2.2439,2.2516,2.2516,2.2516,2.2516,2.2516,2.2516,2.2069,2.2125,2.2135,2.2202,2.2222,2.227,2.229,2.2316,2.234,2.2397,2.2431,2.2447,2.2474,2.2516,2.2554,2.256,2.2574,2.2585,2.259,2.253,2.2522,2.2514,2.2501,2.2589,2.2589,2.265,2.265,2.2651]},{"header":{"parameterUnit":"m.s-1","parameterCategory":1,"la1":30.2991,"la2":30.254,"lo1":-89.0895,"lo2":-89.0444,"dy":0.0017,"dx":0.0017,"nx":28,"ny":28,"refTime":"2023-10-09T21:00:00:Z","depth":0,"parameterNumber":3,"parameterNumberName":"V-component_of_WINDS"},"data":[0,0,0,0,0,0,0,0,0,0,0,0,0,0,0,0,0,0,0,0,0,0,0,0,0,0,0,0,0,0,0,0,0,0,0,0,0,0,0,0,0,0,0,0,0,0,0,0,0,0,0,0,0,0,0,0,0,0,3.5607,3.5607,0,3.5569,3.5568,3.5568,3.548,3.5478,3.5477,3.5475,3.5435,3.5435,3.5436,0,0,0,0,0,0,0,0,0,0,0,0,0,3.5602,3.5603,3.5607,3.5606,3.5606,3.5569,3.5568,3.5568,3.5481,3.5478,3.5476,3.5474,3.5435,3.5435,3.5436,0,0,0,0,0,0,0,0,0,0,0,0,0,3.5588,3.5603,3.5607,3.5558,3.5553,3.5569,3.5568,3.5567,3.5481,3.5478,3.5476,3.5473,3.5434,3.5435,3.5436,3.5496,0,0,3.5439,3.5439,0,0,0,0,0,0,0,0,3.5589,3.5588,3.5566,3.5561,3.5556,3.5526,3.5552,3.5543,3.5482,3.5508,3.5475,3.5472,3.5467,3.5465,3.5464,3.5494,3.5492,3.5439,3.544,3.544,3.544,0,0,0,0,0,0,0,3.559,3.559,3.5592,3.5566,3.556,3.5537,3.5532,3.555,3.5504,3.5506,3.5499,3.5496,3.5464,3.5463,3.5463,3.5492,3.5439,3.544,3.544,3.5441,3.5564,3.5567,0,0,0,0,0,0,3.5598,3.5591,3.5593,3.5591,3.5566,3.5539,3.5534,3.5539,3.5503,3.5495,3.5498,3.5492,3.5463,3.5462,3.5461,3.5525,3.544,3.5441,3.5441,3.5561,3.5565,3.5567,0,0,0,0,0,0,3.5599,3.5599,3.5594,3.5589,3.5587,3.5542,3.5549,3.5539,3.5538,3.5497,3.5489,3.5506,3.5461,3.546,3.5487,3.5522,3.5441,3.5442,3.5558,3.5562,3.5566,3.5656,0,0,0,0,0,0,3.5599,3.56,3.5623,3.559,3.5587,3.5622,3.5551,3.5541,3.554,3.5532,3.5502,3.5495,3.5459,3.5486,3.5488,3.5522,3.5443,3.5555,3.556,3.5565,3.565,3.5663,3.5674,0,0,0,0,0,3.5599,3.5651,3.5625,3.5625,3.5615,3.5625,3.5623,3.558,3.5544,3.5565,3.5539,3.5496,3.5519,3.5489,3.5491,3.5526,3.5552,3.5558,3.5564,3.5644,3.566,3.5674,0,0,0,0,0,0,3.5689,3.5646,3.5616,3.5659,3.5646,3.561,3.5636,3.5599,3.5596,3.5588,3.5536,3.553,3.5563,3.5548,3.5516,3.558,3.5528,3.5535,3.5589,3.5603,3.5615,3.5617,3.5444,0,0,0,0,0,3.5714,3.5726,3.5687,3.5729,3.5724,3.5681,3.5684,3.5652,3.5636,3.5631,3.5606,3.5592,3.5595,3.5599,3.56,3.5648,3.5638,3.5672,3.5684,3.5695,3.57,3.572,3.5734,3.5588,3.5588,3.5587,0,0,3.5766,3.5743,3.5754,3.5746,3.5732,3.5744,3.5677,3.5694,3.5701,3.5633,3.5656,3.5638,3.5618,3.5655,3.567,3.5643,3.5739,3.5702,3.5711,3.5711,3.5728,3.5742,3.5754,3.5592,3.5591,3.559,0,0,3.5865,3.5851,3.5882,3.5869,3.5849,3.582,3.5828,3.5796,3.5781,3.5804,3.5752,3.576,3.5768,3.5755,3.575,3.5842,3.5801,3.5844,3.5907,3.5927,3.5938,3.5948,3.5978,3.5989,3.585,3.5851,3.5851,0,3.5932,3.5948,3.5903,3.5921,3.5918,3.5856,3.5886,3.5876,3.5857,3.5856,3.5826,3.5832,3.5816,3.5846,3.5868,3.5868,3.5872,3.5846,3.594,3.595,3.5958,3.5986,3.5997,3.5856,3.5855,3.5855,3.5854,0,3.6029,3.6041,3.6069,3.6051,3.6051,3.6076,3.6032,3.6037,3.6005,3.5979,3.6001,3.5979,3.5973,3.5978,3.5948,3.6004,3.5987,3.595,3.5897,3.5978,3.6003,3.6013,3.5863,3.5861,3.586,3.5858,0,0,3.6184,3.6139,3.615,3.614,3.6112,3.612,3.6141,3.6134,3.6138,3.6128,3.6141,3.6149,3.6113,3.6107,3.6075,3.6093,3.6163,3.6052,3.6051,3.6071,3.6219,3.6245,3.6258,3.6136,3.6138,3.614,3.6219,0,3.6274,3.6307,3.6265,3.6306,3.6315,3.6256,3.6273,3.6257,3.6233,3.6236,3.6209,3.6214,3.6169,3.6164,3.6179,3.6151,3.6191,3.6145,3.6146,3.6147,3.615,3.6272,3.63,3.6376,3.6229,3.6231,3.6232,0,3.6384,3.6377,3.6419,3.6385,3.6387,3.6404,3.6393,3.6398,3.6377,3.6358,3.6351,3.6311,3.6327,3.6277,3.6296,3.6266,3.6264,3.625,3.6252,3.6248,3.6193,3.6268,3.64,3.641,3.6247,3.6246,3.6245,0,3.6488,3.649,3.6514,3.6507,3.647,3.6482,3.6467,3.6445,3.6442,3.6433,3.643,3.6424,3.6419,3.6414,3.6373,3.6341,3.6396,3.6343,3.6378,3.6379,3.639,3.639,3.6521,3.6395,3.6394,3.6394,3.6394,0,3.6592,3.6619,3.656,3.6574,3.6602,3.6554,3.6582,3.6561,3.6541,3.6549,3.6498,3.6506,3.6453,3.6455,3.6423,3.6442,3.6441,3.6424,3.6415,3.6427,3.6429,3.6423,3.6416,3.6397,3.6397,3.6396,3.6395,0,3.6713,3.6674,3.6696,3.6659,3.665,3.6671,3.6638,3.6649,3.6622,3.6632,3.6632,3.6588,3.6588,3.6546,3.6538,3.6516,3.6547,3.653,3.6554,3.6547,3.6583,3.6579,3.6712,3.6726,3.6595,3.6596,3.6597,0,3.678,3.6799,3.6763,3.6764,3.6752,3.6756,3.6752,3.6705,3.6704,3.6681,3.6694,3.669,3.6683,3.6685,3.6651,3.6644,3.6624,3.6671,3.6622,3.6633,3.662,3.6618,3.6618,3.668,3.6682,3.6684,3.6685,0,3.6902,3.6881,3.6879,3.687,3.6868,3.6859,3.6846,3.685,3.6798,3.6799,3.6797,3.6792,3.6783,3.6777,3.6763,3.6746,3.6706,3.6701,3.6707,3.6719,3.6731,3.6721,3.6579,3.6697,3.6696,3.6695,3.6694,3.6694,3.6995,3.7008,3.6984,3.6983,3.6968,3.6956,3.6964,3.6936,3.6935,3.6923,3.6895,3.6897,3.6874,3.685,3.6837,3.6836,3.6812,3.6824,3.6826,3.6828,3.6834,3.6733,3.6834,3.6834,3.6833,3.6833,3.6833,0,3.7112,3.7093,3.7092,3.7075,3.7073,3.7037,3.702,3.702,3.7023,3.7005,3.6999,3.6996,3.699,3.6956,3.6946,3.6952,3.6933,3.6951,3.6948,3.6944,3.6858,3.6851,3.6966,3.6966,3.6966,3.6966,3.6966,3.6966,3.7172,3.719,3.7167,3.7177,3.7157,3.7159,3.7152,3.7141,3.7125,3.7124,3.7119,3.7097,3.7071,3.7058,3.705,3.704,3.7037,3.7061,3.7044,3.6964,3.6951,3.6938,3.6932,3.7061,3.7061,3.713,3.713,3.7131]}]]